Location: Waco, TX
(31.5480°N, 97.1670°W)
Time: 04:30:37
(UTC-05:00)

ISS - Pass Details

Date: 12 May 2021
Orbit: 417 x 422 km, 51.6° (Epoch: 15 May)

Event Time Altitude Azimuth Distance (km) Brightness Sun altitude
Rises 05:14:23 0° 334° (NNW) 2,367 0.2 -15.8°
Reaches altitude 10° 05:17:39 10° 8° (N) 1,502 -0.4 -15.3°
Maximum altitude 05:18:57 12° 31° (NNE) 1,397 -0.1 -15.0°
Drops below altitude 10° 05:20:16 10° 54° (NE) 1,500 0.5 -14.8°
Sets 05:23:31 0° 89° (E) 2,362 1.1 -14.2°
